Location: Newark
(42.8481°N, 0.4872°E)
Time: 18:11:43
(UTC+00:00)

Vanguard 2 - Pass Details

Date: 02 November 2020
Orbit: 554 x 2937 km, 32.9° (Epoch: 24 November)

Event Time Altitude Azimuth Distance (km) Brightness Sun altitude
Rises 01:38:41 0° 275° (W) 6,656 - -52.4°
Reaches altitude 10° 01:45:20 10° 259° (W) 5,758 - -51.5°
Maximum altitude 01:55:04 18° 226° (SW) 5,040 - -50.0°
Drops below altitude 10° 02:04:13 10° 191° (S) 5,318 - -48.6°
Sets 02:10:04 0° 174° (S) 5,963 - -47.7°
